Simultaneous Nadir Overpasses (SNOs) Predictions

Prediction of SNOs between NOAA-20 and METOP-C Satellite Orbit:

Table of predicted SNOs for the next 14.0 days since TLE Epoch: 8/6/2021
Index Date (NOAA-20) Time (NOAA-20) Lat,Lon (NOAA-20) SZA (NOAA-20 ) Date (METOP-C) Time (METOP-C) Lat,Lon (METOP-C) SZA (METOP-C ) Distance(km) Time Diff (sec)
1 08/19/2021 20:18:31 73.32,-134.13 61.05 08/19/2021 20:19:39 73.27,-131.76 60.86 75.82 68
2 08/19/2021 21:09:13 -73.22, 33.42 119.06 08/19/2021 21:10:22 -73.18, 35.36 119.21 62.65 69
3 08/19/2021 21:59:55 73.03,-158.85 60.74 08/19/2021 22:01:06 73.00,-157.70 60.64 37.60 71
4 08/19/2021 22:50:37 -72.92, 8.68 119.36 08/19/2021 22:51:50 -72.86, 9.33 119.48 22.41 73
5 08/19/2021 23:41:19 72.73, 176.40 60.44 08/19/2021 23:42:33 72.72, 176.38 60.42 1.25 74
6 08/20/2021 00:32:03 -72.73, -16.28 119.56 08/20/2021 00:33:14 -72.73, -16.27 119.57 0.42 71
7 08/20/2021 01:22:49 72.74, 151.01 60.47 08/20/2021 01:23:54 72.75, 151.09 60.46 3.00 65



Historial Predications of SNOs between NOAA-20 and METOP-C
